This is the latest recevied weather packets stored in our database for station/object JA3YAI-13. If no packets are shown the sender has not sent any weather packets the latest 10 day(s).
| Time | Temp. | Humidity | Pressure | Rain* | Wind** | Luminosity | Snow |
|---|---|---|---|---|---|---|---|
| 1777956385 | 21.11° C | 29% | 1011.8 hPa | 0 mm | - | - | - |
| 1777955785 | 21.11° C | 28% | 1011.8 hPa | 0 mm | - | - | - |
| 1777955184 | 22.22° C | 31% | 1011.9 hPa | 0 mm | - | - | - |
| 1777954584 | 21.67° C | 31% | 1012 hPa | 0 mm | - | - | - |
| 1777953984 | 21.67° C | 31% | 1012.1 hPa | 0 mm | - | - | - |
| 1777953385 | 21.11° C | 32% | 1012.1 hPa | 0 mm | - | - | - |
| 1777952785 | 20.56° C | 37% | 1012.4 hPa | 0 mm | - | - | - |
| 1777952184 | 19.44° C | 38% | 1012.6 hPa | 0 mm | - | - | - |
| 1777951584 | 20° C | 34% | 1012.7 hPa | 0 mm | - | - | - |
| 1777950984 | 18.89° C | 38% | 1012.9 hPa | 0 mm | - | - | - |
| 1777950385 | 19.44° C | 40% | 1012.9 hPa | 0 mm | - | - | - |
| 1777949785 | 19.44° C | 41% | 1013.4 hPa | 0 mm | - | - | - |
| 1777949184 | 18.89° C | 46% | 1013.4 hPa | 0 mm | - | - | - |
| 1777948584 | 18.89° C | 43% | 1013.7 hPa | 0 mm | - | - | - |
| 1777947984 | 17.78° C | 54% | 1013.8 hPa | 0 mm | - | - | - |
| 1777947384 | 17.78° C | 59% | 1013.7 hPa | 0 mm | - | - | - |
| 1777946785 | 17.22° C | 60% | 1013.8 hPa | 0 mm | - | - | - |
| 1777946185 | 17.22° C | 62% | 1013.8 hPa | 0 mm | - | - | - |
| 1777945585 | 17.78° C | 58% | 1013.9 hPa | 0 mm | - | - | - |
| 1777944984 | 17.78° C | 60% | 1013.7 hPa | 0 mm | - | - | - |
| 1777944383 | 17.22° C | 62% | 1013.9 hPa | 0 mm | - | - | - |
| 1777943785 | 16.67° C | 62% | 1013.9 hPa | 0 mm | - | - | - |
| 1777943185 | 16.67° C | 62% | 1013.9 hPa | 0 mm | - | - | - |
| 1777942585 | 16.67° C | 65% | 1014.2 hPa | 0 mm | - | - | - |
| 1777941984 | 16.11° C | 67% | 1014 hPa | 0 mm | - | - | - |
* Rain latest hour (hover to see other rain measurements)
** Current wind speed in m/s (hover to see current wind gust speed)